sat.trackr.live / text

‹ back to catalog

HAWK-5B

NORAD 52756 · 2022-057AA

PAYLOAD ACTIVE UNKNOWN

§ Identity

Operator
Country
US
Launch date
2022-05-25
Launch site
AFETR
Launch vehicle
Mass (kg)
RCS (m²)

Purposes: tech_demo

External: N2YO · Heavens-Above · Gunter

§ Orbital elements

Epoch: 2026-05-24T22:42:28.497024Z

Period
92.88 min
Inclination
97.6578°
Eccentricity
0.0005870
Mean motion
15.50438792 rev/d
Perigee alt
411.5 km
Apogee alt
419.4 km
Semi-major
6,793.6 km
B*
2.9605e-4
RAAN
301.4840°
Arg perigee
143.9568°
Mean anomaly
216.2079°
Rev number
22,274

§ Raw data

HAWK-5B1 52756U 22057AA  26144.94616316  .00016771  00000+0  29605-3 0  99902 52756  97.6578 301.4840 0005870 143.9568 216.2079 15.50438792222743

JSON: /api/v1/satellites/52756 · /tle

For live sub-satellite position, see the globe view (requires WebGL).

§ Visibility from observer

Set your observer location to see the next 7 days of passes ≥ 10°. The values pass through the URL so the page stays shareable.

No JS? Fill the form by hand. The geolocation button needs JavaScript.